Regional Weather Roundup
Issued by NWS

Home | Current Version | Previous Version | Text Only | Print | Product List | Glossary Off
Versions: 1 2 3 4 5 6 7 8 9 10 11 12 13 14 15 16 17 18 19 20 21 22 23 24 25 26 27 28 29 30 31 32 33 34 35 36 37 38 39 40 41 42 43 44 45 46 47 48 49 50

000
ASUS45 KCYS 222210
RWRWY

WYOMING REGIONAL WEATHER ROUNDUP
NATIONAL WEATHER SERVICE CHEYENNE WY
400 PM MDT TUE JUL 22 2014

NOTE:  "FAIR" INDICATES FEW OR NO CLOUDS BELOW 12,000 FEET
WITH NO SIGNIFICANT WEATHER AND/OR OBSTRUCTIONS TO VISIBILITY.

WYZ001-222300-
YELLOWSTONE NATIONAL PARK

CITY           SKY/WX    TMP DP  RH WIND       PRES   REMARKS
LK YELLOWSTONE   N/A     74  38  27 SW9       30.49F
W YELLOWSTONE  NOT AVBL

$$
WYZ002>013-054>058-071-098>099-222300-
NORTHERN WYOMING

CITY           SKY/WX    TMP DP  RH WIND       PRES   REMARKS
JACKSON        SUNNY     84  37  18 CALM      30.37S
CODY           SUNNY     90  45  20 N5        30.22F
GREYBULL       SUNNY     97  36  12 SE8       30.13F HX  92
WORLAND        SUNNY     96  33  11 S8        30.13F HX  91
SHERIDAN       SUNNY     94  50  22 NW9       30.15F HX  91
BUFFALO        MOSUNNY   93  42  17 N16       30.23F
GILLETTE       MOSUNNY   93  47  20 SW13G21   30.16F
HULETT         MOCLDY    79  63  57 MISG      30.20
NEWCASTLE      FAIR      90  46  22 S16       30.22

$$
WYZ014>020-022>026-101>103-222300-
CENTRAL WYOMING

CITY           SKY/WX    TMP DP  RH WIND       PRES   REMARKS
BIG PINEY      SUNNY     85  27  12 W7        30.41F
PINEDALE       MOCLDY    82  32  16 W10       30.42F
DUBOIS         FAIR      81  32  17 W18G28    30.41F
LANDER         SUNNY     93  35  13 N7        30.24F
RIVERTON       SUNNY     91  38  15 CALM      30.26F
CASPER         SUNNY     95  36  12 N10       30.24F HX  90
DOUGLAS        SUNNY     91  51  25 S16G23    30.27F

$$
WYZ021-027>030-104>119-222300-
SOUTHERN WYOMING

CITY           SKY/WX    TMP DP  RH WIND       PRES   REMARKS
EVANSTON       SUNNY     87  32  14 W13       30.40F
KEMMERER       CLEAR     86  25  10 SW10G17   30.43S
FORT BRIDGER   FAIR      91  23   8 W18G26    30.43R
ROCK SPRINGS   SUNNY     91  21   8 W13G20    30.37S
DIXON          FAIR      93  22   7 W12G17    30.39S
RAWLINS        SUNNY     89  20   8 VRB3G20   30.38F
SARATOGA       FAIR      90  27  10 NW5G18    30.42S
LARAMIE        SUNNY     87  41  19 N9G16     30.42S
CHEYENNE       SUNNY     82  49  31 SE3       30.37S
TORRINGTON     SUNNY     92  57  30 SE10G16   30.21F HX  90
PINE BLUFFS    FAIR      91  48  22 E14G21    30.29F

$$



USA.gov is the U.S. government's official web portal to all federal, state and local government web resources and services.